This is the latest recevied weather packets stored in our database for station/object N3WPH. If no packets are shown the sender has not sent any weather packets the latest 10 day(s).
| Time | Temp. | Humidity | Pressure | Rain* | Wind** | Luminosity | Snow |
|---|---|---|---|---|---|---|---|
| 1777170547 | 4.44° C | 99% | 1017.1 hPa | 0 mm | - | 0 W/m² | - |
| 1777170244 | 4.44° C | 99% | 1017.2 hPa | 0 mm | - | 0 W/m² | - |
| 1777169940 | 4.44° C | 99% | 1017.1 hPa | 0 mm | - | 0 W/m² | - |
| 1777169636 | 4.44° C | 99% | 1017.1 hPa | 1.78 mm | - | 0 W/m² | - |
| 1777169332 | 4.44° C | 99% | 1016.9 hPa | 1.78 mm | - | 0 W/m² | - |
| 1777169028 | 4.44° C | 98% | 1017 hPa | 0 mm | - | 0 W/m² | - |
| 1777168723 | 4.44° C | 98% | 1016.8 hPa | 0 mm | - | 0 W/m² | - |
| 1777168419 | 4.44° C | 98% | 1016.9 hPa | 0 mm | - | 0 W/m² | - |
| 1777168118 | 4.44° C | 98% | 1016.8 hPa | 0 mm | - | 0 W/m² | - |
| 1777167815 | 4.44° C | 98% | 1017 hPa | 1.78 mm | - | 0 W/m² | - |
| 1777167511 | 5° C | 98% | 1016.8 hPa | 1.78 mm | - | 0 W/m² | - |
| 1777167206 | 5° C | 98% | 1016.5 hPa | 0 mm | - | 0 W/m² | - |
| 1777166902 | 4.44° C | 98% | 1016.7 hPa | 0 mm | - | 0 W/m² | - |
| 1777166597 | 5° C | 98% | 1016.7 hPa | 1.27 mm | - | 0 W/m² | - |
| 1777166293 | 5° C | 98% | 1016.7 hPa | 1.27 mm | - | 0 W/m² | - |
| 1777165989 | 5° C | 98% | 1016.7 hPa | 0 mm | - | 0 W/m² | - |
| 1777165688 | 5° C | 98% | 1016.7 hPa | 0 mm | - | 0 W/m² | - |
| 1777165383 | 5° C | 98% | 1016.6 hPa | 1.78 mm | - | 0 W/m² | - |
| 1777165079 | 5° C | 98% | 1016.6 hPa | 1.78 mm | - | 0 W/m² | - |
| 1777164779 | 5° C | 98% | 1016.7 hPa | 0 mm | - | 0 W/m² | - |
| 1777164477 | 5° C | 98% | 1016.6 hPa | 0 mm | - | 0 W/m² | - |
| 1777164172 | 4.44° C | 98% | 1016.4 hPa | 1.27 mm | - | 0 W/m² | - |
| 1777163867 | 5° C | 98% | 1016.3 hPa | 1.27 mm | - | 0 W/m² | - |
| 1777163562 | 5° C | 98% | 1016.3 hPa | 1.78 mm | - | 0 W/m² | - |
| 1777163259 | 5° C | 98% | 1016.3 hPa | 1.78 mm | - | 0 W/m² | - |
* Rain latest hour (hover to see other rain measurements)
** Current wind speed in m/s (hover to see current wind gust speed)